Weather in Volchansk

Russia / Sverdlovsk Oblast     59°56′05″N   60°04′43″E
temp.,
°C
wind,
m/s
gust,
m/s
humid.,
%
clouds,
%
prec.,
mm/h
press.,
hPa
HPBL,
m
28 september, tue
tue2823:00−1nne27937 0.0 1032148
02:00−2n25976 0.0 1032102
05:00−2n379765 0.0 1032166
08:00−1n389446 0.0 1032255
11:00+4nne3469100 0.0 1031618
14:00+6nne3456100 0.0 10291051
17:00+5ne2462100 0.0 1028590
20:000n11876 0.0 102910
29 september, wed
wed2923:00−1nnw22925 0.0 103015
02:00−2nw11935 0.0 102911
05:00−2nw11935 0.0 103012
08:00−1nw11885 0.0 103024
11:00+5n12585 0.0 1029580
14:00+8n22452 0.0 10281104
17:00+7nne12530 0.0 102875
20:00+1w11720 0.0 102810
30 september, thu
thu3023:00−1w11794 0.0 102810
02:00−1w22855 0.0 102717
05:00−1w2394100 0.0 102641
08:00+1w238591 0.0 102571
11:00+7wnw246663 0.0 1024424
14:00+9w336519 0.0 1022710
17:00+8wnw247098 0.0 1022272
20:00+5wnw2384100 0.0 102279
1 october, fri
fri123:00+5nw2588100 0.0 1023183
02:00+5n3892100 0.1 1024558
05:00+5nne2794100 0.1 1026527
08:00+3nne259885 0.1 1027255
11:00+5nne127333 0.1 1028604
14:00+8wnw126011 0.0 1028838
17:00+8w2362100 0.0 1027723
20:00+6wnw116578 0.0 102712
2 october, sat
sat223:00+2w11855 0.0 102814
02:00+1wsw22925 0.0 102741
05:000w23927 0.0 102740
08:00+3w2481100 0.0 1026144
11:00+7w2578100 0.0 1026264
14:00+10w467075 0.0 1026932
17:00+8w4874100 0.0 10261066
20:00+8w4974100 0.0 1026532